Location: Observatoire
(46.1952°N, 5.3391°E)
Time: 19:32:57
(UTC+01:00)

Courier 1B - Pass Details

Date: 24 February 2026
Orbit: 962 x 1208 km, 28.3° (Epoch: 6 March)

Event Time Altitude Azimuth Distance (km) Brightness Sun altitude
Rises 20:10:07 0° 241° (WSW) 3,799 11.4 -20.2°
Reaches altitude 10° 20:13:45 10° 223° (SW) 2,893 10.4 -20.8°
Maximum altitude 20:18:12 18° 184° (S) 2,424 9.5 -21.6°
Enters shadow 20:21:03 14° 157° (SSE) 2,675 9.5 -22.0°
